Meteo pe oră la Czyste

Astăzi, 14 Aprilie, Miercuri

Timp Temperatura Precipitaţii Vânt Presiune Umiditate
00:00 +1°C° 0 mm 3 m/s 763 mmHg 81%
01:00 0°C° 0 mm 3 m/s 763 mmHg 83%
02:00 0°C° 0 mm 3 m/s 763 mmHg 86%
03:00 -1°C° 0 mm 3 m/s 763 mmHg 89%
04:00 -1°C° 0 mm 3 m/s 763 mmHg 91%
05:00 -2°C° 0 mm 4 m/s 763 mmHg 89%
06:00 -1°C° 0 mm 4 m/s 763 mmHg 87%
07:00 0°C° 0 mm 4 m/s 763 mmHg 85%
08:00 +1°C° 0 mm 4 m/s 763 mmHg 75%
09:00 +3°C° 0 mm 4 m/s 763 mmHg 66%
10:00 +5°C° 0 mm 4 m/s 763 mmHg 56%
11:00 +5°C° 0.1 mm 4 m/s 763 mmHg 52%
12:00 +6°C° 0.1 mm 4 m/s 763 mmHg 49%
13:00 +7°C° 0.1 mm 4 m/s 763 mmHg 45%
14:00 +7°C° 0 mm 5 m/s 763 mmHg 45%
15:00 +6°C° 0 mm 5 m/s 763 mmHg 46%
16:00 +6°C° 0 mm 5 m/s 762 mmHg 46%
17:00 +5°C° 0 mm 5 m/s 763 mmHg 53%
18:00 +3°C° 0 mm 4 m/s 763 mmHg 60%
19:00 +2°C° 0 mm 3 m/s 763 mmHg 67%
20:00 +1°C° 0 mm 3 m/s 763 mmHg 72%
21:00 +1°C° 0 mm 3 m/s 763 mmHg 77%
22:00 0°C° 0 mm 3 m/s 764 mmHg 82%
23:00 0°C° 0 mm 3 m/s 764 mmHg 83%

Mâine, 15 Aprilie, Joi

Timp Temperatura Precipitaţii Vânt Presiune Umiditate
00:00 0°C° 0 mm 3 m/s 764 mmHg 84%
01:00 0°C° 0 mm 3 m/s 764 mmHg 85%
02:00 0°C° 0 mm 3 m/s 764 mmHg 85%
03:00 0°C° 0 mm 3 m/s 763 mmHg 84%
04:00 0°C° 0 mm 3 m/s 763 mmHg 84%
05:00 0°C° 0 mm 4 m/s 764 mmHg 81%
06:00 0°C° 0 mm 4 m/s 764 mmHg 77%
07:00 +1°C° 0 mm 5 m/s 764 mmHg 73%
08:00 +2°C° 0 mm 5 m/s 764 mmHg 67%
09:00 +2°C° 0 mm 6 m/s 764 mmHg 61%
10:00 +3°C° 0 mm 6 m/s 764 mmHg 54%
11:00 +3°C° 0 mm 7 m/s 763 mmHg 53%
12:00 +4°C° 0 mm 7 m/s 763 mmHg 52%
13:00 +4°C° 0 mm 7 m/s 763 mmHg 50%
14:00 +4°C° 0.2 mm 7 m/s 763 mmHg 59%
15:00 +3°C° 0.2 mm 7 m/s 762 mmHg 68%
16:00 +2°C° 0.2 mm 7 m/s 762 mmHg 77%
17:00 +2°C° 0.5 mm 7 m/s 762 mmHg 80%
18:00 +2°C° 0.5 mm 6 m/s 762 mmHg 83%
19:00 +1°C° 0.5 mm 6 m/s 762 mmHg 86%
20:00 +1°C° 0.4 mm 6 m/s 762 mmHg 86%
21:00 +1°C° 0.4 mm 6 m/s 761 mmHg 87%
22:00 +1°C° 0.4 mm 6 m/s 761 mmHg 87%
23:00 +1°C° 0.1 mm 6 m/s 761 mmHg 87%

Poimâine, 16 Aprilie, Vineri

Timp Temperatura Precipitaţii Vânt Presiune Umiditate
00:00 +1°C° 0.1 mm 6 m/s 761 mmHg 86%
01:00 +1°C° 0.1 mm 5 m/s 761 mmHg 85%
02:00 +1°C° 0 mm 5 m/s 761 mmHg 87%
03:00 +1°C° 0 mm 5 m/s 761 mmHg 88%
04:00 0°C° 0 mm 4 m/s 761 mmHg 90%
05:00 +1°C° 0 mm 4 m/s 761 mmHg 89%
06:00 +1°C° 0 mm 4 m/s 761 mmHg 88%
07:00 +3°C° 0 mm 4 m/s 761 mmHg 86%
08:00 +3°C° 0 mm 5 m/s 761 mmHg 80%
09:00 +5°C° 0 mm 5 m/s 761 mmHg 74%
10:00 +6°C° 0 mm 5 m/s 761 mmHg 68%
11:00 +7°C° 0 mm 5 m/s 761 mmHg 66%
12:00 +7°C° 0 mm 5 m/s 761 mmHg 64%
13:00 +8°C° 0 mm 5 m/s 761 mmHg 62%
14:00 +7°C° 0 mm 5 m/s 761 mmHg 67%
15:00 +6°C° 0 mm 5 m/s 761 mmHg 73%
16:00 +6°C° 0 mm 4 m/s 761 mmHg 78%
17:00 +5°C° 0.1 mm 4 m/s 761 mmHg 81%
18:00 +5°C° 0.1 mm 4 m/s 761 mmHg 83%
19:00 +4°C° 0.1 mm 4 m/s 761 mmHg 86%
20:00 +4°C° 0 mm 3 m/s 761 mmHg 88%
21:00 +3°C° 0 mm 3 m/s 761 mmHg 90%
22:00 +3°C° 0 mm 3 m/s 761 mmHg 92%
23:00 +3°C° 0 mm 3 m/s 761 mmHg 92%

17 Aprilie, Sâmbătă

Timp Temperatura Precipitaţii Vânt Presiune Umiditate
00:00 +3°C° 0 mm 3 m/s 761 mmHg 93%
01:00 +3°C° 0 mm 3 m/s 761 mmHg 93%
02:00 +3°C° 0 mm 3 m/s 761 mmHg 93%
03:00 +4°C° 0 mm 2 m/s 761 mmHg 93%
04:00 +4°C° 0 mm 2 m/s 761 mmHg 93%
05:00 +3°C° 0.1 mm 3 m/s 761 mmHg 94%
06:00 +3°C° 0.1 mm 3 m/s 761 mmHg 94%
07:00 +4°C° 0.1 mm 3 m/s 761 mmHg 94%
08:00 +4°C° 0.1 mm 3 m/s 761 mmHg 94%
09:00 +5°C° 0.1 mm 3 m/s 761 mmHg 93%
10:00 +5°C° 0.1 mm 3 m/s 761 mmHg 92%
11:00 +7°C° 0 mm 3 m/s 761 mmHg 88%
12:00 +9°C° 0 mm 3 m/s 761 mmHg 83%
13:00 +10°C° 0 mm 3 m/s 761 mmHg 78%
14:00 +10°C° 0.1 mm 3 m/s 761 mmHg 78%
15:00 +11°C° 0.1 mm 3 m/s 760 mmHg 78%
16:00 +11°C° 0.1 mm 3 m/s 760 mmHg 78%
17:00 +10°C° 0.1 mm 4 m/s 760 mmHg 82%
18:00 +8°C° 0.1 mm 4 m/s 760 mmHg 86%
19:00 +7°C° 0.1 mm 4 m/s 760 mmHg 90%
20:00 +8°C° 0 mm 3 m/s 761 mmHg 92%
21:00 +7°C° 0 mm 3 m/s 761 mmHg 94%
22:00 +5°C° 0 mm 3 m/s 761 mmHg 96%
23:00 +6°C° 0 mm 2 m/s 761 mmHg 96%

18 Aprilie, Duminică

Timp Temperatura Precipitaţii Vânt Presiune Umiditate
00:00 +6°C° 0 mm 2 m/s 761 mmHg 96%
01:00 +5°C° 0 mm 2 m/s 760 mmHg 96%
02:00 +5°C° 0 mm 2 m/s 760 mmHg 96%
03:00 +5°C° 0 mm 2 m/s 760 mmHg 96%
04:00 +5°C° 0 mm 2 m/s 760 mmHg 95%
05:00 +5°C° 0 mm 3 m/s 760 mmHg 93%
06:00 +5°C° 0 mm 3 m/s 760 mmHg 92%
07:00 +7°C° 0 mm 3 m/s 760 mmHg 90%
08:00 +8°C° 0.1 mm 3 m/s 760 mmHg 87%
09:00 +9°C° 0.1 mm 3 m/s 760 mmHg 85%
10:00 +10°C° 0.1 mm 3 m/s 760 mmHg 82%
11:00 +11°C° 0.2 mm 3 m/s 760 mmHg 78%
12:00 +11°C° 0.2 mm 3 m/s 760 mmHg 74%
13:00 +13°C° 0.2 mm 2 m/s 759 mmHg 69%
14:00 +13°C° 0.5 mm 2 m/s 759 mmHg 70%
15:00 +12°C° 0.5 mm 3 m/s 759 mmHg 71%
16:00 +12°C° 0.5 mm 3 m/s 759 mmHg 72%
17:00 +11°C° 0.6 mm 3 m/s 759 mmHg 78%
18:00 +10°C° 0.6 mm 3 m/s 759 mmHg 84%
19:00 +9°C° 0.6 mm 3 m/s 759 mmHg 90%
20:00 +8°C° 0 mm 2 m/s 759 mmHg 91%
21:00 +7°C° 0 mm 2 m/s 759 mmHg 92%
22:00 +6°C° 0 mm 2 m/s 760 mmHg 93%
23:00 +6°C° 0 mm 2 m/s 759 mmHg 92%

19 Aprilie, Luni

Timp Temperatura Precipitaţii Vânt Presiune Umiditate
00:00 +6°C° 0 mm 2 m/s 759 mmHg 92%
01:00 +6°C° 0 mm 1 m/s 759 mmHg 92%
02:00 +6°C° 0 mm 1 m/s 759 mmHg 92%
03:00 +5°C° 0 mm 2 m/s 759 mmHg 92%
04:00 +5°C° 0 mm 2 m/s 759 mmHg 92%
05:00 +6°C° 0 mm 2 m/s 759 mmHg 91%
06:00 +7°C° 0 mm 2 m/s 759 mmHg 90%
07:00 +7°C° 0 mm 2 m/s 759 mmHg 88%
08:00 +9°C° 0 mm 2 m/s 759 mmHg 84%
09:00 +10°C° 0 mm 2 m/s 759 mmHg 79%
10:00 +12°C° 0 mm 2 m/s 759 mmHg 75%
11:00 +12°C° 0.2 mm 2 m/s 758 mmHg 73%
12:00 +12°C° 0.2 mm 3 m/s 758 mmHg 71%
13:00 +12°C° 0.2 mm 3 m/s 757 mmHg 69%
14:00 +12°C° 0.1 mm 3 m/s 757 mmHg 73%
15:00 +11°C° 0.1 mm 3 m/s 757 mmHg 76%
16:00 +11°C° 0.1 mm 3 m/s 756 mmHg 80%
17:00 +10°C° 0.4 mm 2 m/s 756 mmHg 84%
18:00 +9°C° 0.4 mm 2 m/s 756 mmHg 89%
19:00 +9°C° 0.4 mm 2 m/s 756 mmHg 93%
20:00 +8°C° 0.7 mm 2 m/s 756 mmHg 94%
21:00 +8°C° 0.7 mm 2 m/s 755 mmHg 95%
22:00 +8°C° 0.7 mm 2 m/s 755 mmHg 97%
23:00 +8°C° 0.5 mm 2 m/s 755 mmHg 96%
Arată mai mult

Formular de consimțământ

Meteoprog și furnizorii noștri de servicii pot stoca și accesa date personale, precum cookies, identificatori de dispozitiv sau alte tehnologii similare pe dispozitivul dumneavoastră și procesa astfel de date pentru a personaliza conținutul și reclamele, dar și pentru a oferi caracteristici de social media și pentru a analiza traficul.

  • Stocarea și/sau accesarea informațiilor pe dispozitivul dumneavoastră

    Cookies, identificatori de dispozitiv sau alte informații pot fi stocate sau accesate pe dispozitiv în scopurile indicate mai sus.

  • Reclame și conținut personalizat, evaluarea reclamelor și a conținutului, informații despre audiențe și dezvoltarea produselor

    Reclamele și conținutul pot fi personalizate pe baza unui profil. Pot fi adăugate date suplimentare pentru a personaliza mai bine reclamele și conținutul. Performanța reclamelor și conținutului poate fi măsurată. Pot fi obținute informații despre utilizatorii care au văzut reclamele și conținutul. Aceste date pot fi utilizate pentru a dezvolta sau îmbunătăți experiența utilizatorilor, sistemele și software-ul.

Dând clic pe ‘Sunt de acord’, permiteți utilizarea cookie-urilor menționate, a identificatorilor de dispozitiv, balizelor web sau altor tehnologii similare. Setările pot fi modificate din browser-ul dispozitivului dumneavoastră.

În anumite scopuri, interesele legitime pot prima asupra consimțământului. Puteți citi mai multe informații în acest sens în Politica privind Confidențialitatea Datelor și Cookie.